| time (UTC) | temp C | wind direction | speed KPH | gust KPH | rain 1hr cm | rain 24hr cm | rain mn cm | humidity % | barometer mb |
| 20260502163232 | 25 | 72 | 3.2 | 9.7 | 0.00 | 0.00 | 0.00 | 24 | 1022.4 |
| 20260502161726 | 25 | 64 | 0.0 | 16.1 | 0.00 | 0.00 | 0.00 | 24 | 1022.5 |
| 20260502160225 | 26 | 274 | 1.6 | 11.3 | 0.00 | 0.00 | 0.00 | 23 | 1022.9 |
| 20260502151716 | 26 | 119 | 3.2 | 6.4 | 0.00 | 0.00 | 0.00 | 22 | 1023.2 |
| 20260502150153 | 27 | 61 | 4.8 | 9.7 | 0.00 | 0.00 | 0.00 | 21 | 1023.5 |
| 20260502130113 | 25 | 246 | 3.2 | 9.7 | 0.00 | 0.00 | 0.00 | 27 | 1024.9 |
| 20260502123107 | 25 | 240 | 4.8 | 11.3 | 0.00 | 0.00 | 0.00 | 26 | 1025.5 |
| 20260502121607 | 25 | 147 | 0.0 | 11.3 | 0.00 | 0.00 | 0.00 | 25 | 1025.7 |
| 20260502120112 | 24 | 215 | 3.2 | 6.4 | 0.00 | 0.00 | 0.00 | 26 | 1025.9 |
| 20260502114603 | 24 | 97 | 1.6 | 14.5 | 0.00 | 0.00 | 0.00 | 25 | 1026.1 |
| 20260502113103 | 23 | 136 | 6.4 | 17.7 | 0.00 | 0.00 | 0.00 | 29 | 1026.1 |
| 20260502111600 | 23 | 73 | 8.0 | 12.9 | 0.00 | 0.00 | 0.00 | 29 | 1026.7 |
| 20260502110053 | 23 | 94 | 1.6 | 9.7 | 0.00 | 0.00 | 0.00 | 31 | 1026.7 |
| 20260502104547 | 22 | 72 | 6.4 | 14.5 | 0.00 | 0.00 | 0.00 | 30 | 1026.8 |
| 20260502103042 | 22 | 134 | 4.8 | 14.5 | 0.00 | 0.00 | 0.00 | 31 | 1027.0 |
| 20260502101552 | 23 | 258 | 6.4 | 12.9 | 0.00 | 0.00 | 0.00 | 31 | 1027.2 |
| 20260502071517 | 13 | 191 | 0.0 | 3.2 | 0.00 | 0.00 | 0.00 | 62 | 1028.6 |
| 20260502070016 | 12 | 71 | 0.0 | 4.8 | 0.00 | 0.00 | 0.00 | 64 | 1028.8 |
| 20260502064535 | 11 | 160 | 1.6 | 3.2 | 0.00 | 0.00 | 0.00 | 67 | 1029.0 |
| 20260502063009 | 10 | 71 | 0.0 | 0.0 | 0.00 | 0.00 | 0.00 | 70 | 1028.9 |
| 20260502061515 | 8 | 62 | 0.0 | 0.0 | 0.00 | 0.00 | 0.00 | 73 | 1029.0 |
| 20260502060002 | 7 | 62 | 0.0 | 0.0 | 0.00 | 0.00 | 0.00 | 78 | 1029.1 |
| 20260502054456 | 6 | 62 | 0.0 | 0.0 | 0.00 | 0.00 | 0.00 | 80 | 1029.0 |
| 20260502052951 | 5 | 62 | 0.0 | 0.0 | 0.00 | 0.00 | 0.00 | 84 | 1028.9 |
| 20260502051452 | 4 | 62 | 0.0 | 0.0 | 0.00 | 0.00 | 0.00 | 86 | 1029.0 |
| 20260502045949 | 2 | 62 | 0.0 | 0.0 | 0.00 | 0.00 | 0.00 | 87 | 1028.9 |
| 20260502044448 | 2 | 62 | 0.0 | 0.0 | 0.00 | 0.00 | 0.00 | 89 | 1028.8 |
| 20260502042933 | 1 | 62 | 0.0 | 0.0 | 0.00 | 0.00 | 0.00 | 85 | 1028.7 |
| 20260502041519 | 1 | 62 | 0.0 | 0.0 | 0.00 | 0.00 | 0.00 | 84 | 1028.9 |
| 20260502035930 | 1 | 62 | 0.0 | 0.0 | 0.00 | 0.00 | 0.00 | 84 | 1028.8 |
| 20260502034437 | 1 | 62 | 0.0 | 0.0 | 0.00 | 0.00 | 0.00 | 84 | 1028.6 |
| 20260502032927 | 1 | 62 | 0.0 | 0.0 | 0.00 | 0.00 | 0.00 | 83 | 1028.6 |
| 20260502031426 | 1 | 62 | 0.0 | 0.0 | 0.00 | 0.00 | 0.00 | 84 | 1028.7 |
| 20260502025926 | 1 | 62 | 0.0 | 0.0 | 0.00 | 0.00 | 0.00 | 85 | 1028.8 |
| 20260502024425 | 1 | 62 | 0.0 | 0.0 | 0.00 | 0.00 | 0.00 | 81 | 1028.6 |
| 20260502022920 | 1 | 62 | 0.0 | 0.0 | 0.00 | 0.00 | 0.00 | 82 | 1028.7 |
| 20260502021418 | 2 | 62 | 0.0 | 0.0 | 0.00 | 0.00 | 0.00 | 81 | 1028.7 |
| 20260502015915 | 2 | 62 | 0.0 | 0.0 | 0.00 | 0.00 | 0.00 | 82 | 1028.8 |
| 20260502014414 | 2 | 62 | 0.0 | 0.0 | 0.00 | 0.00 | 0.00 | 80 | 1028.7 |
| 20260502012916 | 2 | 62 | 0.0 | 0.0 | 0.00 | 0.00 | 0.00 | 82 | 1028.8 |
| 20260502011352 | 2 | 62 | 0.0 | 0.0 | 0.00 | 0.00 | 0.00 | 81 | 1028.9 |
| 20260502005847 | 3 | 62 | 0.0 | 0.0 | 0.00 | 0.00 | 0.00 | 79 | 1029.1 |
| 20260502004345 | 4 | 62 | 0.0 | 0.0 | 0.00 | 0.00 | 0.00 | 79 | 1028.8 |
| 20260502002841 | 3 | 62 | 0.0 | 0.0 | 0.00 | 0.00 | 0.00 | 77 | 1029.0 |
| 20260502001338 | 4 | 62 | 0.0 | 0.0 | 0.00 | 0.00 | 0.00 | 79 | 1029.1 |
| 20260501235842 | 4 | 62 | 0.0 | 3.2 | 0.00 | 0.00 | 0.00 | 78 | 1029.2 |
| 20260501234330 | 4 | 26 | 0.0 | 0.0 | 0.00 | 0.00 | 0.00 | 77 | 1029.2 |
| 20260501233823 | 4 | 323 | 0.0 | 0.0 | 0.00 | 0.00 | 0.00 | 75 | 1029.5 |
| 20260501231324 | 5 | 323 | 0.0 | 0.0 | 0.00 | 0.00 | 0.00 | 74 | 1029.2 |
| 20260501225829 | 5 | 323 | 0.0 | 1.6 | 0.00 | 0.00 | 0.00 | 72 | 1029.2 |
| 20260501224326 | 5 | 69 | 0.0 | 3.2 | 0.00 | 0.00 | 0.00 | 72 | 1029.1 |
| 20260501222819 | 6 | 37 | 0.0 | 0.0 | 0.00 | 0.00 | 0.00 | 70 | 1029.2 |
| 20260501221413 | 6 | 37 | 0.0 | 0.0 | 0.00 | 0.00 | 0.00 | 69 | 1029.2 |
| 20260501215815 | 6 | 37 | 0.0 | 0.0 | 0.00 | 0.00 | 0.00 | 69 | 1029.1 |
| 20260501214315 | 6 | 37 | 0.0 | 0.0 | 0.00 | 0.00 | 0.00 | 68 | 1029.2 |
| 20260501212815 | 7 | 37 | 0.0 | 0.0 | 0.00 | 0.00 | 0.00 | 66 | 1029.2 |
| 20260501211308 | 7 | 37 | 0.0 | 0.0 | 0.00 | 0.00 | 0.00 | 65 | 1029.1 |
| 20260501205810 | 7 | 37 | 0.0 | 0.0 | 0.00 | 0.00 | 0.00 | 63 | 1029.1 |
| 20260501204300 | 8 | 37 | 0.0 | 0.0 | 0.00 | 0.00 | 0.00 | 60 | 1029.0 |
| 20260501202802 | 9 | 37 | 0.0 | 0.0 | 0.00 | 0.00 | 0.00 | 58 | 1029.0 |
| 20260501201249 | 10 | 37 | 0.0 | 0.0 | 0.00 | 0.00 | 0.00 | 56 | 1029.2 |
| 20260501195743 | 11 | 37 | 0.0 | 0.0 | 0.00 | 0.00 | 0.00 | 55 | 1028.9 |
| 20260501194300 | 12 | 5 | 0.0 | 3.2 | 0.00 | 0.00 | 0.00 | 53 | 1029.1 |
| 20260501192945 | 12 | 63 | 0.0 | 1.6 | 0.00 | 0.00 | 0.00 | 53 | 1028.8 |
| 20260501191232 | 13 | 64 | 0.0 | 4.8 | 0.00 | 0.00 | 0.00 | 48 | 1028.7 |
| 20260501185726 | 13 | 51 | 0.0 | 3.2 | 0.00 | 0.00 | 0.00 | 47 | 1028.7 |
| 20260501184213 | 13 | 20 | 0.0 | 1.6 | 0.00 | 0.00 | 0.00 | 47 | 1028.7 |
| 20260501182710 | 15 | 333 | 0.0 | 0.0 | 0.00 | 0.00 | 0.00 | 45 | 1028.6 |
| 20260501181211 | 16 | 333 | 0.0 | 1.6 | 0.00 | 0.00 | 0.00 | 42 | 1028.3 |
| 20260501175703 | 17 | 316 | 0.0 | 3.2 | 0.00 | 0.00 | 0.00 | 41 | 1028.2 |
| 20260501174208 | 18 | 4 | 1.6 | 9.7 | 0.00 | 0.00 | 0.00 | 38 | 1028.1 |
| 20260501172700 | 20 | 348 | 6.4 | 11.3 | 0.00 | 0.00 | 0.00 | 34 | 1028.0 |
| 20260501171156 | 20 | 354 | 3.2 | 9.7 | 0.00 | 0.00 | 0.00 | 33 | 1028.0 |
| 20260501165652 | 21 | 308 | 0.0 | 11.3 | 0.00 | 0.00 | 0.00 | 33 | 1028.2 |
| 20260501164151 | 22 | 354 | 9.7 | 17.7 | 0.00 | 0.00 | 0.00 | 31 | 1028.2 |